TimeCDT,TemperatureF,Dew PointF,Humidity,Sea Level PressureIn,VisibilityMPH,Wind Direction,Wind SpeedMPH,Gust SpeedMPH,PrecipitationIn,Events,Conditions,WindDirDegrees,DateUTC
12:15 AM,24.8,24.8,100,29.81,10.0,NNW,26.5,31.1,N/A,,Clear,330,2013-04-19 05:15:00
12:35 AM,24.8,24.8,100,29.80,10.0,NNW,24.2,-,N/A,,Clear,330,2013-04-19 05:35:00
12:55 AM,23.0,23.0,100,29.80,10.0,NW,23.0,-,N/A,,Clear,320,2013-04-19 05:55:00
1:15 AM,23.0,23.0,100,29.80,10.0,NW,25.3,-,N/A,,Clear,320,2013-04-19 06:15:00
1:35 AM,23.0,23.0,100,29.79,10.0,NW,21.9,28.8,N/A,,Clear,320,2013-04-19 06:35:00
1:55 AM,23.0,23.0,100,29.79,10.0,NW,21.9,-,N/A,,Clear,320,2013-04-19 06:55:00
2:15 AM,23.0,23.0,100,29.78,10.0,NNW,20.7,-,N/A,,Clear,330,2013-04-19 07:15:00
2:35 AM,23.0,23.0,100,29.78,10.0,NNW,23.0,29.9,N/A,,Clear,330,2013-04-19 07:35:00
2:55 AM,21.2,21.2,100,29.78,10.0,NW,23.0,-,N/A,,Clear,320,2013-04-19 07:55:00
3:15 AM,21.2,21.2,100,29.78,10.0,NW,20.7,-,N/A,,Clear,320,2013-04-19 08:15:00
3:35 AM,21.2,21.2,100,29.77,10.0,NW,20.7,-,N/A,,Clear,320,2013-04-19 08:35:00
3:55 AM,21.2,21.2,100,29.78,10.0,NW,20.7,26.5,N/A,,Clear,320,2013-04-19 08:55:00
4:15 AM,21.2,21.2,100,29.78,10.0,NW,21.9,27.6,N/A,,Clear,320,2013-04-19 09:15:00
4:35 AM,21.2,21.2,100,29.78,10.0,NW,18.4,-,N/A,,Clear,320,2013-04-19 09:35:00
4:55 AM,21.2,21.2,100,29.78,10.0,NW,19.6,24.2,N/A,,Clear,320,2013-04-19 09:55:00
5:35 AM,21.2,21.2,100,29.78,10.0,NW,20.7,26.5,N/A,,Scattered Clouds,310,2013-04-19 10:35:00
5:55 AM,21.2,21.2,100,29.78,10.0,NW,19.6,25.3,N/A,,Mostly Cloudy,310,2013-04-19 10:55:00
6:15 AM,21.2,21.2,100,29.79,10.0,NW,18.4,-,N/A,,Mostly Cloudy,320,2013-04-19 11:15:00
6:35 AM,21.2,21.2,100,29.79,10.0,NW,20.7,-,N/A,,Clear,320,2013-04-19 11:35:00
6:55 AM,23.0,23.0,100,29.80,10.0,NW,20.7,-,N/A,,Clear,320,2013-04-19 11:55:00
7:15 AM,23.0,23.0,100,29.80,10.0,NW,18.4,-,N/A,,Clear,320,2013-04-19 12:15:00
7:35 AM,23.0,23.0,100,29.81,10.0,NW,18.4,-,N/A,,Clear,320,2013-04-19 12:35:00
7:55 AM,23.0,23.0,100,29.82,10.0,NW,17.3,-,N/A,,Clear,320,2013-04-19 12:55:00
8:15 AM,23.0,23.0,100,29.82,10.0,NW,17.3,-,N/A,,Clear,320,2013-04-19 13:15:00
8:35 AM,24.8,24.8,100,29.82,10.0,NW,18.4,-,N/A,,Clear,310,2013-04-19 13:35:00
8:55 AM,24.8,24.8,100,29.82,10.0,NW,18.4,-,N/A,,Clear,310,2013-04-19 13:55:00
9:35 AM,24.8,24.8,100,29.84,10.0,NW,18.4,21.9,N/A,,Clear,320,2013-04-19 14:35:00
9:55 AM,26.6,26.6,100,29.84,10.0,NNW,20.7,24.2,N/A,,Clear,330,2013-04-19 14:55:00
10:15 AM,26.6,26.6,100,29.85,10.0,NW,19.6,-,N/A,,Clear,320,2013-04-19 15:15:00
10:35 AM,26.6,26.6,100,29.85,10.0,NW,19.6,-,N/A,,Clear,320,2013-04-19 15:35:00
10:55 AM,26.6,26.6,100,29.86,10.0,NW,17.3,-,N/A,,Clear,320,2013-04-19 15:55:00
11:15 AM,26.6,26.6,100,29.87,10.0,NW,19.6,26.5,N/A,,Clear,320,2013-04-19 16:15:00
11:35 AM,28.4,26.6,93,29.87,10.0,NW,20.7,-,N/A,,Clear,310,2013-04-19 16:35:00
11:55 AM,28.4,28.4,100,29.89,10.0,NW,17.3,-,N/A,,Clear,320,2013-04-19 16:55:00
12:15 PM,28.4,28.4,100,29.89,10.0,NW,18.4,25.3,N/A,,Clear,320,2013-04-19 17:15:00
12:35 PM,28.4,26.6,93,29.90,10.0,NW,21.9,25.3,N/A,,Clear,320,2013-04-19 17:35:00
12:55 PM,30.2,26.6,86,29.90,10.0,NNW,20.7,-,N/A,,Clear,330,2013-04-19 17:55:00
1:15 PM,30.2,26.6,86,29.91,10.0,NW,21.9,-,N/A,,Clear,320,2013-04-19 18:15:00
1:35 PM,32.0,26.6,80,29.92,10.0,NW,20.7,27.6,N/A,,Clear,320,2013-04-19 18:35:00
1:55 PM,32.0,26.6,80,29.92,10.0,NNW,24.2,28.8,N/A,,Clear,330,2013-04-19 18:55:00
2:15 PM,32.0,24.8,75,29.93,10.0,NNW,21.9,29.9,N/A,,Clear,330,2013-04-19 19:15:00
2:35 PM,32.0,24.8,75,29.93,10.0,NNW,20.7,27.6,N/A,,Clear,330,2013-04-19 19:35:00
2:55 PM,32.0,24.8,75,29.94,10.0,NNW,21.9,27.6,N/A,,Clear,340,2013-04-19 19:55:00
3:15 PM,32.0,24.8,75,29.94,10.0,NNW,19.6,26.5,N/A,,Clear,330,2013-04-19 20:15:00
3:35 PM,32.0,23.0,69,29.94,10.0,NNW,23.0,27.6,N/A,,Clear,330,2013-04-19 20:35:00
3:55 PM,32.0,23.0,69,29.95,10.0,NNW,21.9,29.9,N/A,,Clear,330,2013-04-19 20:55:00
4:15 PM,32.0,23.0,69,29.96,10.0,NNW,21.9,28.8,N/A,,Clear,330,2013-04-19 21:15:00
4:35 PM,32.0,23.0,69,29.96,10.0,NNW,20.7,-,N/A,,Clear,330,2013-04-19 21:35:00
4:55 PM,32.0,23.0,69,29.97,10.0,NNW,19.6,-,N/A,,Clear,330,2013-04-19 21:55:00
5:15 PM,32.0,23.0,69,29.98,10.0,NNW,19.6,23.0,N/A,,Clear,330,2013-04-19 22:15:00
5:35 PM,32.0,23.0,69,29.98,10.0,NNW,18.4,23.0,N/A,,Clear,330,2013-04-19 22:35:00
5:55 PM,32.0,23.0,69,29.99,10.0,NNW,17.3,-,N/A,,Clear,330,2013-04-19 22:55:00
6:15 PM,32.0,21.2,64,30.00,10.0,NNW,16.1,-,N/A,,Clear,340,2013-04-19 23:15:00
6:35 PM,30.2,23.0,75,30.00,10.0,NNW,16.1,-,N/A,,Clear,340,2013-04-19 23:35:00
6:55 PM,30.2,24.8,80,30.00,10.0,NNW,16.1,-,N/A,,Clear,330,2013-04-19 23:55:00
7:15 PM,28.4,24.8,86,30.01,10.0,NNW,13.8,19.6,N/A,,Clear,340,2013-04-20 00:15:00
7:35 PM,28.4,24.8,86,30.02,10.0,NNW,12.7,-,N/A,,Clear,330,2013-04-20 00:35:00
7:55 PM,26.6,24.8,93,30.02,10.0,NNW,11.5,-,N/A,,Clear,330,2013-04-20 00:55:00
8:15 PM,26.6,24.8,93,30.02,10.0,NNW,10.4,-,N/A,,Clear,330,2013-04-20 01:15:00
8:35 PM,26.6,24.8,93,30.03,10.0,NNW,10.4,-,N/A,,Clear,340,2013-04-20 01:35:00
8:55 PM,26.6,23.0,86,30.04,10.0,NNW,11.5,-,N/A,,Clear,330,2013-04-20 01:55:00
9:15 PM,23.0,23.0,100,30.05,10.0,NNW,11.5,-,N/A,,Clear,340,2013-04-20 02:15:00
9:35 PM,24.8,24.8,100,30.06,10.0,NNW,9.2,-,N/A,,Clear,330,2013-04-20 02:35:00
9:55 PM,23.0,23.0,100,30.06,10.0,NNW,10.4,-,N/A,,Clear,330,2013-04-20 02:55:00
10:15 PM,23.0,23.0,100,30.07,10.0,NNW,9.2,-,N/A,,Clear,330,2013-04-20 03:15:00
10:35 PM,23.0,23.0,100,30.06,10.0,NNW,8.1,-,N/A,,Clear,330,2013-04-20 03:35:00
10:55 PM,21.2,21.2,100,30.06,10.0,NW,10.4,-,N/A,,Clear,320,2013-04-20 03:55:00
11:15 PM,21.2,21.2,100,30.07,10.0,NW,8.1,-,N/A,,Clear,320,2013-04-20 04:15:00